Regional Weather Roundup
Issued by NWS

Home | Current Version | Previous Version | Text Only | Print | Product List | Glossary On
Versions: 1 2 3 4 5 6 7 8 9 10 11 12 13 14 15 16 17 18 19 20 21 22 23 24 25 26 27 28 29 30 31 32 33 34 35 36 37 38 39 40 41 42 43 44 45 46 47 48 49 50
000
ASUS46 KPQR 301310
RWROR

OREGON REGIONAL WEATHER ROUNDUP
NATIONAL WEATHER SERVICE PORTLAND OR
600 AM PDT MON MAY 30 2016

NOTE: "FAIR" INDICATES FEW OR NO CLOUDS BELOW 12,000 FEET WITH
NO SIGNIFICANT WEATHER AND/OR OBSTRUCTIONS TO VISIBILITY.

ORZ001>013-301400-
NORTHWEST OREGON


CITY           SKY/WX    TMP DP  RH WIND       PRES   REMARKS
ASTORIA        PTCLDY    42  41  96 SE3       30.27S
NEWPORT        CLEAR     45  43  93 E3        30.26F
PORTLAND       PTCLDY    50  44  80 NW5       30.27R
VANCOUVER WA   CLEAR     48  43  82 CALM      30.26S
SCAPPOOSE      CLEAR     50  42  74 NW7       30.26R
HILLSBORO      CLEAR     42  39  89 CALM      30.26R
AURORA         CLEAR     46  42  86 NE5       30.27R
MCMINNVILLE    CLEAR     43  41  93 CALM      30.27R
SALEM          CLEAR     48  41  76 NW5       30.25R
CORVALLIS        N/A     45  43  93 NW5       30.26R
EUGENE         PTCLDY    46  41  82 CALM      30.24R
$$

ORZ021-028-301400-
SOUTHWEST OREGON


CITY           SKY/WX    TMP DP  RH WIND       PRES   REMARKS
NORTH BEND     PTCLDY    50  48  93 NE6       30.21S
BROOKINGS      PTCLDY    50  48  93 NE3       30.07F
ROSEBURG       CLEAR     50  46  86 CALM      30.20R
SEXTON SUMMIT  CLEAR     49  40  71 N8        30.17S
MEDFORD        PTCLDY    51  42  71 CALM      30.16S
$$

ORZ014>016-041-301400-
COLUMBIA GORGE


CITY           SKY/WX    TMP DP  RH WIND       PRES   REMARKS
TROUTDALE      CLEAR     46  42  86 E3        30.26R
THE DALLES     CLEAR     52  43  71 NW6       30.23R
$$

ORZ029>031-041-044-049-050-061>064-502-503-505>511-301400-
EASTERN OREGON


CITY           SKY/WX    TMP DP  RH WIND       PRES   REMARKS
REDMOND        CLEAR     37  34  89 S5        30.23R WCI  33
BEND           CLEAR     39  36  87 CALM      30.23R
PRINEVILLE     CLEAR     36  34  93 CALM      30.23R
KLAMATH FALLS  CLEAR     37  33  85 CALM      30.19R
LAKEVIEW       CLEAR     45  34  65 N9        30.21S
HERMISTON      CLEAR     43  38  82 CALM      30.22R
PENDLETON      CLEAR     51  37  58 CALM      30.21S
JOHN DAY         N/A    N/A N/A N/A MISG        N/A
MEACHAM        CLEAR     37  33  85 CALM      30.22S
LA GRANDE      CLEAR     48  32  53 NW10      30.21R
BAKER CITY     PTCLDY    43  36  76 NW9       30.21R
BURNS          CLEAR     39  34  82 W12       30.21R WCI  32
ROME             N/A     40  31  70 SE3       30.17R
ONTARIO        PTCLDY    55  38  52 NW20      30.14R
$$



USA.gov is the U.S. government's official web portal to all federal, state and local government web resources and services.